{"data":{"norad_id":58817,"epoch":"2026-09-22T22:07:22.613664Z","epoch_age_seconds":40733,"freshness":"FRESH","line1":"1 58817U 24015A   26265.92178951  .00000000  00000+0  32123-4 0  9998","line2":"2 58817  64.5149 156.9630 0011226 299.7250  60.2718 14.42740996140876","mean_motion":14.42740996,"eccentricity":0.0011226,"inclination_deg":64.5149,"raan_deg":156.963,"arg_perigee_deg":299.725,"mean_anomaly_deg":60.2718,"bstar":3.2123e-5,"rev_number":14087,"period_min":99.810014686794,"perigee_km":741.45511513566,"apogee_km":757.45798817784,"semimajor_km":7127.5935516567,"source":"CELESTRAK","updated_at":"2026-09-23T09:00:19.005354Z"}}